TimeCDT,TemperatureF,Dew PointF,Humidity,Sea Level PressureIn,VisibilityMPH,Wind Direction,Wind SpeedMPH,Gust SpeedMPH,PrecipitationIn,Events,Conditions,WindDirDegrees,DateUTC
12:36 AM,21.2,15.8,80,30.15,10.0,SSE,5.8,-,N/A,,Scattered Clouds,160,2013-03-14 05:36:00
12:56 AM,21.2,15.8,80,30.14,10.0,SSE,4.6,-,N/A,,Scattered Clouds,150,2013-03-14 05:56:00
1:16 AM,21.2,15.8,80,30.14,10.0,SSE,4.6,-,N/A,,Clear,160,2013-03-14 06:16:00
1:36 AM,21.2,15.8,80,30.13,10.0,SSE,5.8,-,N/A,,Clear,150,2013-03-14 06:36:00
1:56 AM,21.2,15.8,80,30.12,10.0,SSE,5.8,-,N/A,,Mostly Cloudy,150,2013-03-14 06:56:00
2:16 AM,21.2,15.8,80,30.13,10.0,SSE,4.6,-,N/A,,Overcast,160,2013-03-14 07:16:00
2:36 AM,21.2,17.6,86,30.13,1.5,SSE,3.5,-,N/A,Snow,Light Snow,150,2013-03-14 07:36:00
2:56 AM,21.2,19.4,93,30.12,1.2,Calm,Calm,-,N/A,Snow,Light Snow,0,2013-03-14 07:56:00
3:16 AM,21.2,19.4,93,30.12,2.0,SE,3.5,-,N/A,Snow,Light Snow,140,2013-03-14 08:16:00
3:36 AM,21.2,19.4,93,30.12,1.0,South,3.5,-,0.01,Snow,Snow,170,2013-03-14 08:36:00
3:56 AM,21.2,19.4,93,30.11,1.5,SSE,4.6,-,N/A,Snow,Light Snow,150,2013-03-14 08:56:00
4:16 AM,21.2,19.4,93,30.09,2.5,SSE,6.9,-,N/A,Snow,Light Snow,150,2013-03-14 09:16:00
4:36 AM,21.2,19.4,93,30.08,5.0,SSE,5.8,-,N/A,Snow,Light Snow,150,2013-03-14 09:36:00
4:56 AM,21.2,19.4,93,30.07,10.0,SE,5.8,-,N/A,Snow,Light Snow,130,2013-03-14 09:56:00
5:16 AM,21.2,19.4,93,30.05,10.0,SE,3.5,-,N/A,,Clear,130,2013-03-14 10:16:00
5:36 AM,19.4,17.6,93,30.05,10.0,ESE,3.5,-,0.01,,Clear,110,2013-03-14 10:36:00
5:56 AM,19.4,17.6,93,30.06,10.0,Calm,Calm,-,N/A,,Mostly Cloudy,0,2013-03-14 10:56:00
6:16 AM,19.4,17.6,93,30.06,10.0,Calm,Calm,-,N/A,,Overcast,0,2013-03-14 11:16:00
6:36 AM,21.2,19.4,93,30.08,10.0,Calm,Calm,-,0.01,,Mostly Cloudy,0,2013-03-14 11:36:00
6:56 AM,21.2,19.4,93,30.08,10.0,Calm,Calm,-,N/A,,Mostly Cloudy,0,2013-03-14 11:56:00
7:16 AM,21.2,19.4,93,30.10,10.0,Calm,Calm,-,N/A,,Mostly Cloudy,0,2013-03-14 12:16:00
7:36 AM,21.2,19.4,93,30.09,10.0,SE,3.5,-,0.01,,Overcast,130,2013-03-14 12:36:00
7:56 AM,21.2,19.4,93,30.09,10.0,SE,3.5,-,N/A,,Overcast,130,2013-03-14 12:56:00
8:16 AM,21.2,19.4,93,30.08,10.0,SE,3.5,-,N/A,,Overcast,140,2013-03-14 13:16:00
8:56 AM,21.2,19.4,93,30.07,10.0,SE,6.9,-,N/A,,Overcast,140,2013-03-14 13:56:00
9:16 AM,21.2,19.4,93,30.07,10.0,SE,5.8,-,N/A,,Overcast,140,2013-03-14 14:16:00
9:36 AM,23.0,19.4,86,30.08,10.0,South,4.6,-,N/A,,Overcast,170,2013-03-14 14:36:00
9:56 AM,24.8,21.2,86,30.08,10.0,SSE,6.9,-,N/A,,Scattered Clouds,150,2013-03-14 14:56:00
10:16 AM,24.8,21.2,86,30.06,10.0,SSE,6.9,-,N/A,,Scattered Clouds,150,2013-03-14 15:16:00
10:36 AM,26.6,21.2,80,30.05,10.0,SSE,8.1,-,N/A,,Mostly Cloudy,160,2013-03-14 15:36:00
10:56 AM,28.4,23.0,80,30.05,10.0,South,5.8,-,N/A,,Mostly Cloudy,170,2013-03-14 15:56:00
11:16 AM,28.4,23.0,80,30.07,10.0,SW,8.1,-,N/A,,Mostly Cloudy,230,2013-03-14 16:16:00
11:36 AM,28.4,23.0,80,30.08,10.0,SW,5.8,-,N/A,,Mostly Cloudy,230,2013-03-14 16:36:00
11:56 AM,28.4,23.0,80,30.09,10.0,SW,6.9,-,N/A,,Mostly Cloudy,230,2013-03-14 16:56:00
12:16 PM,30.2,24.8,80,30.10,10.0,West,4.6,-,N/A,,Scattered Clouds,260,2013-03-14 17:16:00
12:36 PM,30.2,24.8,80,30.07,10.0,Calm,Calm,-,N/A,,Mostly Cloudy,0,2013-03-14 17:36:00
12:56 PM,32.0,24.8,75,30.06,10.0,Calm,Calm,-,N/A,,Scattered Clouds,0,2013-03-14 17:56:00
1:16 PM,33.8,24.8,70,30.05,10.0,Calm,Calm,-,N/A,,Clear,0,2013-03-14 18:16:00
1:36 PM,35.6,24.8,65,30.04,10.0,Calm,Calm,-,N/A,,Clear,0,2013-03-14 18:36:00
1:56 PM,35.6,24.8,65,30.04,10.0,West,3.5,-,N/A,,Clear,260,2013-03-14 18:56:00
2:16 PM,35.6,24.8,65,30.04,10.0,SW,3.5,-,N/A,,Clear,220,2013-03-14 19:16:00
2:36 PM,37.4,24.8,60,30.05,10.0,WSW,8.1,-,N/A,,Clear,250,2013-03-14 19:36:00
2:56 PM,37.4,24.8,60,30.04,10.0,SSW,4.6,-,N/A,,Clear,210,2013-03-14 19:56:00
3:16 PM,39.2,26.6,61,30.02,10.0,SSW,4.6,-,N/A,,Clear,200,2013-03-14 20:16:00
3:36 PM,39.2,26.6,61,30.01,10.0,SSW,5.8,-,N/A,,Clear,200,2013-03-14 20:36:00
3:56 PM,41.0,26.6,57,30.01,10.0,SSW,8.1,-,N/A,,Clear,200,2013-03-14 20:56:00
4:16 PM,41.0,26.6,57,30.02,10.0,SW,4.6,-,N/A,,Clear,230,2013-03-14 21:16:00
4:56 PM,41.0,26.6,57,30.01,10.0,SSW,5.8,-,N/A,,Clear,210,2013-03-14 21:56:00
5:16 PM,41.0,26.6,57,30.01,10.0,SW,6.9,-,N/A,,Clear,230,2013-03-14 22:16:00
5:36 PM,41.0,26.6,57,30.01,10.0,SW,5.8,-,N/A,,Clear,230,2013-03-14 22:36:00
5:56 PM,39.2,26.6,61,30.00,10.0,WSW,6.9,-,N/A,,Clear,240,2013-03-14 22:56:00
6:16 PM,39.2,26.6,61,29.99,10.0,SW,5.8,-,N/A,,Clear,230,2013-03-14 23:16:00
6:36 PM,39.2,26.6,61,29.98,10.0,SW,5.8,-,N/A,,Clear,220,2013-03-14 23:36:00
6:56 PM,37.4,26.6,65,29.98,10.0,SW,4.6,-,N/A,,Clear,220,2013-03-14 23:56:00
7:16 PM,35.6,26.6,70,29.98,10.0,WSW,4.6,-,N/A,,Clear,240,2013-03-15 00:16:00
7:36 PM,35.6,26.6,70,29.98,10.0,SW,3.5,-,N/A,,Clear,230,2013-03-15 00:36:00
7:56 PM,33.8,26.6,75,29.98,10.0,SW,5.8,-,N/A,,Clear,220,2013-03-15 00:56:00
8:16 PM,33.8,26.6,75,29.98,10.0,Calm,Calm,-,N/A,,Clear,0,2013-03-15 01:16:00
8:36 PM,33.8,26.6,75,29.98,10.0,WSW,3.5,-,N/A,,Clear,240,2013-03-15 01:36:00
8:56 PM,30.2,24.8,80,29.98,10.0,West,3.5,-,N/A,,Clear,270,2013-03-15 01:56:00
9:16 PM,30.2,24.8,80,29.99,10.0,West,3.5,-,N/A,,Clear,270,2013-03-15 02:16:00
9:36 PM,28.4,24.8,86,29.98,10.0,West,3.5,-,N/A,,Clear,270,2013-03-15 02:36:00
9:56 PM,28.4,24.8,86,29.99,10.0,WNW,4.6,-,N/A,,Clear,300,2013-03-15 02:56:00
10:16 PM,30.2,24.8,80,29.99,10.0,NW,5.8,-,N/A,,Clear,310,2013-03-15 03:16:00
10:36 PM,30.2,24.8,80,29.99,10.0,NNW,4.6,-,N/A,,Clear,330,2013-03-15 03:36:00
10:56 PM,30.2,24.8,80,29.98,10.0,NNW,5.8,-,N/A,,Clear,340,2013-03-15 03:56:00
11:16 PM,30.2,24.8,80,29.99,10.0,NW,4.6,-,N/A,,Clear,310,2013-03-15 04:16:00
11:36 PM,28.4,24.8,86,29.99,10.0,Calm,Calm,-,N/A,,Clear,0,2013-03-15 04:36:00
11:56 PM,28.4,24.8,86,29.98,10.0,NW,3.5,-,N/A,,Scattered Clouds,320,2013-03-15 04:56:00